Location: Newark
(34.9500°N, 139.9667°E)
Time: 07:34:59
(UTC+00:00)

Altair - Pass Details

Date: 11 December 2019
Orbit: 1502 x 1682 km, 47.2° (Epoch: 24 January)

Event Time Altitude Azimuth Distance (km) Brightness Sun altitude
Rises 08:28:41 0° 182° (S) 4,855 10.4 -12.1°
Reaches altitude 10° 08:33:07 10° 165° (SSE) 3,841 9.6 -12.9°
Maximum altitude 08:39:18 19° 125° (SE) 3,146 8.8 -14.1°
Enters shadow 08:43:13 15° 97° (E) 3,408 8.8 -14.9°
